Change the Weather History Date:

Tuesday, March 25, 2014

  Actual Average Record
Temperature  
Mean Temperature 25 °F -  
Max Temperature 36 °F 48 °F 71 °F (1963)
Min Temperature 14 °F 30 °F 9 °F (1956)
Degree Days  
Heating Degree Days 40    
Cooling Degree Days 0    
Moisture  
Dew Point 7 °F    
Average Humidity 46    
Maximum Humidity 74    
Minimum Humidity 28    
Precipitation  
Precipitation 0.00 in 0.17 in 0.75 in (1989)
Month to date precipitation 3.28  
Year to date precipitation 9.08  
Snow  
Snow 0.00 in - - ()
Month to date snowfall  
Since 1 July snowfall  
Snow Depth -    
Sea Level Pressure  
Sea Level Pressure 30.10 in    
Wind  
Wind Speed 5 mph (South)    
Max Wind Speed 12 mph    
Max Gust Speed 18 mph    
Visibility 10 miles    
Events      
T = Trace of Precipitation, MM = Missing Value Source: NWS Daily Summary

Daily Weather History Graph

Daily Weather History Graph

Search for Another Location

Airport or City:

Trip Planner

Search our weather history database for the weather conditions in past years. The results will help you decide how hot, cold, wet, or windy it might be!

Date:

Astronomy

Mar. 25, 2014 Rise Set
Actual Time 6:40 AM EDT 7:03 PM EDT
Civil Twilight 6:11 AM EDT 7:32 PM EDT
Nautical Twilight 5:38 AM EDT 8:05 PM EDT
Astronomical Twilight 5:04 AM EDT 8:40 PM EDT
Moon 3:06 AM EDT (3/25) 1:23 PM EDT (3/25)
Length of Visible Light 13h 20m
Length of Day
12h 23m
Waning Crescent, 32% of the Moon is Illuminated
Mar 25
Waning Crescent
Mar 30
New
Apr 7
First Quarter
Apr 15
Full
Apr 22
Last Quarter

Hourly Weather History & Observations

Time (EDT) Temp. Windchill Dew Point Humidity Pressure Visibility Wind Dir Wind Speed Gust Speed Precip Events Conditions
12:53 AM 19.9 °F 13.4 °F 5.0 °F 52% 30.17 in 10.0 mi SSE 4.6 mph - N/A   Clear
1:53 AM 19.9 °F 14.9 °F 5.0 °F 52% 30.16 in 10.0 mi South 3.5 mph - N/A   Clear
2:53 AM 19.9 °F 14.9 °F 5.0 °F 52% 30.16 in 10.0 mi WSW 3.5 mph - N/A   Clear
3:53 AM 17.1 °F - 6.1 °F 62% 30.15 in 10.0 mi Calm Calm - N/A   Clear
4:53 AM 16.0 °F 10.4 °F 6.1 °F 65% 30.15 in 10.0 mi SSW 3.5 mph - N/A   Clear
5:53 AM 14.0 °F 8.2 °F 7.0 °F 74% 30.16 in 10.0 mi South 3.5 mph - N/A   Clear
6:53 AM 15.1 °F - 8.1 °F 74% 30.17 in 10.0 mi Calm Calm - N/A   Clear
7:53 AM 17.1 °F - 7.0 °F 65% 30.18 in 10.0 mi Calm Calm - N/A   Clear
8:53 AM 21.9 °F 17.2 °F 8.1 °F 55% 30.17 in 10.0 mi SSW 3.5 mph - N/A   Partly Cloudy
9:53 AM 26.1 °F 18.4 °F 7.0 °F 44% 30.16 in 10.0 mi SW 6.9 mph - N/A   Partly Cloudy
10:53 AM 28.9 °F 20.4 °F 5.0 °F 36% 30.14 in 10.0 mi West 9.2 mph 18.4 mph N/A   Mostly Cloudy
11:53 AM 30.0 °F 21.7 °F 6.1 °F 36% 30.13 in 10.0 mi West 9.2 mph 16.1 mph N/A   Mostly Cloudy
12:53 PM 32.0 °F 23.6 °F 5.0 °F 32% 30.12 in 10.0 mi SW 10.4 mph 18.4 mph N/A   Overcast
1:53 PM 32.0 °F 24.2 °F 3.9 °F 31% 30.10 in 10.0 mi West 9.2 mph - N/A   Mostly Cloudy
2:53 PM 34.0 °F 25.5 °F 3.9 °F 28% 30.08 in 10.0 mi SW 11.5 mph 17.3 mph N/A   Mostly Cloudy
3:53 PM 35.1 °F 27.9 °F 5.0 °F 28% 30.06 in 10.0 mi SSW 9.2 mph - N/A   Mostly Cloudy
4:53 PM 36.0 °F 29.0 °F 7.0 °F 30% 30.04 in 10.0 mi SSW 9.2 mph - N/A   Mostly Cloudy
5:53 PM 35.1 °F 32.2 °F 6.1 °F 30% 30.04 in 10.0 mi SSE 3.5 mph - N/A   Overcast
6:53 PM 34.0 °F 31.0 °F 6.1 °F 31% 30.02 in 10.0 mi South 3.5 mph - N/A   Overcast
7:53 PM 33.1 °F 28.7 °F 8.1 °F 35% 30.02 in 10.0 mi ESE 4.6 mph - N/A   Overcast
8:53 PM 30.9 °F 23.5 °F 12.0 °F 46% 30.02 in 10.0 mi East 8.1 mph - N/A   Overcast
9:53 PM 30.9 °F 22.8 °F 12.9 °F 47% 30.03 in 10.0 mi East 9.2 mph - N/A   Overcast
10:53 PM 30.9 °F 24.3 °F 15.1 °F 52% 30.03 in 10.0 mi East 6.9 mph - N/A   Overcast
11:53 PM 30.0 °F 24.1 °F 16.0 °F 56% 30.00 in 10.0 mi ENE 5.8 mph - N/A   Overcast